LiveATC.Net - Listen to live air traffic control over the Internet!


ICAO: KHRL  IATA: HRL   Airport: Valley International Airport
City: Harlingen   State/Province: Texas
Country: United States   Continent: North America
KHRL METAR Weather: KHRL 281759Z 08008KT 10SM FEW021 BKN032 OVC039 27/22 A2993 RMK AO2 T02670222
KHRL ADS-B Flight Tracking (ADSBExchange)
KHRL Flight Activity (FlightAware)
KHRL Airport Info   (iFlightPlanner)
KHRL VFR Sectional Chart   (iFlightPlanner) 
KHRL IFR Low Altitude Chart   (iFlightPlanner) 
KHRL IFR High Altitude Chart   (iFlightPlanner) 

KHRL Gnd/Twr/App
Feed Status: DOWN
Last heard on: 2022-09-23 03:21:22 (66 days 14 hours 54 minutes ago)
Archive Access: KHRL Gnd/Twr/App
FacilityFrequency
Harlingen Clearance/Ground121.700
Harlingen Tower119.300
Valley Approach120.700

NOTICE

Unauthorized use prohibited. See LiveATC.net Terms of Service


Airport/ARTCC Code
Frequency Search
(e.g., 124.400, 128.75)
Site-wide search
 


Browse Feeds
Top 50 Feeds
HF Oceanic Feeds
Coverage Map
Bad Weather Areas

LiveATC FAQ
Offer LiveATC feed
Contact LiveATC.net
Press Inquiries

LiveATC on iPhone
LiveATC on Android

LiveATC Mobile
(Mobile browser)

ATC Audio Archives
Interesting Recordings

LiveATC Forums


Home Page
About LiveATC.net


Terms of Use
Privacy Policy

AIRMETs/SIGMETs

FAA Airport Status
NAS Status
Arrival Demand


Server Software By:
Icecast.org
Liquidsoap